Wind_Speed
15 14 13 13 11 9 8 7 5 3 3 6 7 8 9 12 14 15 16 16 15 15 14 14 14 13 13 12 12 12 12 11 10 8 5 4 3 3 3 3 3 3 2 2
16 15 15 14 13 10 9 9 7 5 5 6 7 8 9 10 13 15 16 16 14 15 14 13 13 12 12 12 12 11 11 10 9 8 6 4 4 3 3 3 3 3 3 3
17 16 16 15 13 11 11 12 11 9 8 8 9 9 10 10 12 14 16 16 16 15 15 14 13 12 11 11 11 11 11 10 9 8 7 5 4 3 3 4 4 3 4 4
18 18 17 15 13 12 12 12 13 12 11 10 11 11 10 10 11 12 14 15 16 16 15 13 12 11 11 10 11 11 10 10 9 8 6 5 4 3 4 4 4 4 4 5
20 19 19 17 14 13 13 13 13 13 12 11 12 12 11 11 11 12 13 15 16 16 14 13 12 11 11 10 10 11 10 10 9 7 6 5 4 4 4 4 4 4 5 5
21 21 20 17 15 14 14 14 13 13 12 11 11 13 11 12 11 11 13 15 16 15 15 14 13 12 11 11 10 10 10 9 8 7 7 6 5 5 5 4 4 5 5 5
23 22 21 19 17 15 15 15 14 13 12 10 10 11 11 12 12 12 13 15 16 15 14 13 12 12 11 11 10 10 10 9 9 8 7 6 6 5 6 6 5 5 5 5
25 24 22 20 18 16 16 16 15 14 12 10 10 11 10 11 12 12 12 13 13 13 13 12 11 11 11 10 10 10 10 9 9 9 8 7 6 5 5 6 5 5 5 5
27 25 23 22 20 18 17 16 16 16 15 13 12 12 11 11 11 11 12 13 13 13 12 11 10 10 10 10 10 10 10 9 9 8 7 6 6 6 5 5 5 5 5 6
27 26 25 24 23 21 18 17 18 18 17 16 15 14 13 13 12 13 14 13 12 12 13 13 11 8 9 9 9 10 9 8 8 7 7 7 7 6 6 6 6 6 6 7
27 27 25 26 24 20 19 19 20 19 19 18 17 15 15 14 14 15 15 14 14 13 14 15 13 9 8 9 9 9 8 8 7 7 7 7 7 6 6 6 6 7 7 7
28 28 28 27 25 23 20 20 20 21 20 20 20 18 17 17 16 16 16 16 17 14 14 15 13 11 11 9 9 10 8 8 8 8 8 8 7 7 7 7 7 7 8 9
30 31 30 29 28 25 23 21 21 22 22 23 23 21 20 19 19 18 18 17 15 13 15 16 13 12 11 10 10 10 9 8 8 8 9 9 8 8 8 8 8 8 9 9
32 33 32 31 29 28 25 23 21 22 23 23 23 22 22 21 21 20 19 17 15 15 15 14 13 12 12 11 10 11 10 9 9 9 10 10 9 9 9 9 9 9 10 10
33 33 33 32 31 31 29 26 24 22 22 23 23 23 23 22 22 22 21 19 17 16 16 15 14 13 13 12 11 12 12 11 11 11 12 11 10 10 10 10 11 11 11 11
34 34 33 33 33 34 33 30 26 24 23 24 24 24 25 25 25 23 23 21 19 17 17 17 16 14 15 13 13 13 13 12 12 12 12 11 10 10 11 11 11 12 12 12
37 35 34 34 33 34 35 32 29 27 25 24 24 23 25 26 26 26 25 23 22 20 18 17 17 16 16 15 14 14 14 13 13 13 13 11 11 11 12 11 12 12 12 13
38 37 36 35 34 36 33 32 31 29 27 25 23 24 25 26 27 27 26 24 23 21 19 18 18 17 16 15 14 14 15 14 14 14 13 13 12 13 13 13 13 14 14 14
40 38 37 36 36 35 34 34 34 32 30 28 27 27 27 28 28 28 27 24 24 23 22 20 19 18 17 16 16 16 15 15 15 15 15 14 14 14 14 15 15 15 15 15
42 40 38 37 36 36 35 34 35 35 34 32 30 29 30 29 29 29 28 27 25 24 23 21 20 19 19 18 18 18 18 17 17 17 17 16 16 16 16 17 17 17 16 16
42 41 39 38 37 36 36 37 37 37 37 35 32 31 31 31 31 30 29 28 27 26 24 22 21 21 21 20 20 20 20 19 18 18 18 18 18 18 18 18 18 18 18 19
43 42 41 40 39 38 36 37 38 39 37 35 34 33 34 33 33 31 30 29 28 26 25 24 24 23 22 21 21 21 21 21 20 20 20 20 20 20 20 20 20 20 20 21
43 43 42 41 40 38 37 38 39 40 39 37 35 34 34 34 34 32 30 29 28 27 26 25 25 25 24 24 23 23 23 23 23 23 22 22 22 21 21 21 22 22 22 22
43 43 42 42 40 39 38 39 39 41 41 40 39 37 37 36 35 34 32 30 29 29 29 28 27 27 27 26 26 26 25 25 25 24 24 24 23 23 23 23 24 25 25 24
41 41 41 41 40 39 38 39 40 40 41 41 41 39 38 36 36 36 35 34 33 33 32 31 30 29 28 28 28 28 28 27 26 25 25 26 26 25 25 25 26 26 27 27
39 40 39 39 38 38 39 38 38 39 40 40 40 40 39 37 37 38 37 36 36 35 34 32 31 31 30 30 30 30 29 29 28 28 28 28 27 27 27 27 28 29 30 30
Wind_Direction
202 198 192 191 196 192 180 173 187 221 284 305 307 310 323 336 342 343 345 348 348 349 351 352 353 357 358 358 0 3 2 3 4 0 351 347 332 317 304 299 300 292 282 245
208 203 198 202 204 206 200 189 202 219 247 272 283 290 306 325 333 337 338 341 343 341 348 351 349 349 352 354 356 359 358 355 355 356 352 348 338 310 291 280 276 272 271 254
213 209 208 209 208 208 205 204 214 228 233 248 268 278 299 315 321 327 329 335 341 341 342 344 347 347 347 349 351 354 355 350 348 348 353 340 323 304 288 282 275 265 265 261
213 212 214 214 213 209 205 214 221 230 234 238 253 267 287 300 309 318 324 332 338 340 339 341 346 346 344 345 346 348 353 352 350 346 345 339 325 303 292 287 274 269 262 259
215 217 218 217 217 218 218 226 228 230 234 239 251 265 280 288 303 312 320 328 334 339 338 338 341 342 341 339 340 343 349 351 353 349 348 343 325 308 306 288 270 270 271 264
217 222 224 223 221 222 224 228 229 231 235 238 250 263 269 281 297 306 318 326 328 331 334 336 337 338 337 334 333 338 343 346 350 349 344 338 326 311 305 292 279 273 272 270
220 224 227 228 228 230 231 230 230 231 233 237 249 265 275 276 286 297 307 317 322 328 331 330 330 329 330 330 328 332 338 340 340 340 333 329 327 309 299 297 282 280 273 276
224 222 225 229 231 233 236 235 233 231 232 236 248 266 284 286 287 292 300 309 317 322 325 328 324 323 326 328 327 329 330 331 331 329 327 321 316 312 300 296 289 282 276 276
226 223 224 228 229 231 235 237 233 232 233 238 248 264 279 292 294 298 301 305 311 320 324 323 320 320 323 326 329 330 327 327 329 328 327 321 315 312 305 291 285 285 282 284
224 223 223 226 228 228 230 234 234 233 234 241 251 264 278 282 290 301 303 306 307 319 325 322 323 317 321 326 331 329 326 327 331 332 328 325 314 305 302 294 293 288 285 287
222 223 220 225 227 225 227 232 236 238 238 242 251 258 265 279 290 298 301 307 311 322 327 325 318 323 325 326 328 330 331 330 328 329 328 325 320 310 297 291 290 293 293 291
220 222 220 223 226 226 227 232 237 240 241 243 250 256 262 272 281 290 297 303 313 318 326 328 326 324 328 327 327 329 332 332 330 329 330 331 326 318 307 299 296 295 294 294
218 222 220 219 223 228 229 231 237 241 243 243 247 254 261 269 275 283 293 299 307 313 321 322 321 321 320 324 326 327 330 327 327 329 330 328 322 317 311 307 298 295 297 297
219 223 224 222 221 226 231 232 236 241 242 244 246 250 256 264 273 281 288 290 297 308 317 315 313 313 314 321 324 324 326 325 324 327 325 323 317 313 310 307 299 296 296 296
221 224 225 222 218 223 230 233 233 238 244 246 245 245 250 260 269 277 282 287 291 300 306 310 308 310 314 317 319 319 319 318 318 320 320 315 311 308 310 308 299 296 297 296
225 226 226 225 222 222 228 233 235 237 241 244 244 243 245 253 262 270 277 285 287 293 300 305 309 311 311 311 313 314 316 317 316 316 318 311 309 307 306 306 302 299 295 294
227 228 229 228 226 225 226 231 235 240 241 243 243 244 244 250 259 267 274 280 285 290 294 298 302 302 305 305 306 308 310 312 314 314 314 312 307 311 309 305 307 305 301 299
229 230 231 231 229 229 229 228 230 234 239 241 243 244 245 249 256 264 271 276 282 287 289 292 295 296 298 297 299 303 306 306 307 309 308 306 306 306 309 307 305 305 305 305
229 231 232 232 232 231 229 227 228 230 233 237 242 245 247 251 257 262 268 272 278 286 287 290 292 294 296 293 294 298 299 300 302 303 305 304 303 305 306 307 307 306 304 303
229 230 232 232 233 231 226 226 228 230 233 235 240 244 249 253 257 263 268 273 276 280 284 287 290 291 291 291 294 296 295 294 295 298 300 298 300 301 304 305 306 307 308 305
229 230 231 231 232 231 228 226 227 230 235 238 241 244 248 251 256 260 266 271 275 279 282 283 285 286 286 289 291 292 294 291 291 292 294 295 296 299 301 303 304 305 305 303
228 231 232 232 233 232 230 228 228 232 236 239 242 245 248 252 256 258 262 268 273 276 278 279 281 284 285 286 287 289 291 289 289 290 292 293 294 295 297 300 303 304 303 303
228 230 232 233 234 233 230 229 230 233 234 237 241 245 248 253 255 256 261 265 268 271 273 275 278 281 282 283 285 287 288 288 289 290 291 291 292 294 296 299 300 301 300 300
229 231 232 234 235 234 232 231 231 233 236 238 241 245 250 253 256 259 260 264 267 270 272 273 276 278 280 281 282 283 285 288 288 286 288 290 292 292 294 296 298 299 299 299
230 232 234 235 237 237 236 235 235 236 238 240 243 246 250 252 254 257 259 263 267 269 271 272 273 275 277 279 280 281 282 284 285 285 285 287 289 292 293 294 297 297 297 299
229 231 234 236 238 239 239 239 239 240 241 242 245 248 248 250 253 257 260 263 266 268 271 271 271 273 274 275 277 278 280 281 281 283 285 286 288 290 292 293 294 296 298 298
Height
5930 5933 5934 5935 5936 5937 5937 5938 5938 5939 5939 5940 5939 5938 5937 5936 5935 5934 5932 5931 5928 5926 5924 5922 5919 5917 5915 5913 5911 5909 5907 5905 5904 5902 5902 5901 5901 5900 5900 5900 5900 5900 5900 5900
5929 5931 5932 5932 5934 5935 5936 5937 5938 5938 5939 5938 5937 5937 5936 5935 5934 5933 5932 5930 5928 5926 5924 5922 5920 5917 5915 5913 5911 5909 5907 5905 5904 5902 5901 5900 5900 5899 5899 5899 5899 5899 5899 5899
5926 5929 5929 5930 5931 5933 5934 5936 5936 5936 5937 5937 5936 5936 5935 5934 5933 5933 5932 5930 5928 5926 5924 5921 5919 5917 5915 5913 5911 5909 5907 5905 5903 5901 5900 5899 5899 5898 5898 5898 5898 5898 5898 5898
5922 5925 5926 5927 5929 5930 5932 5933 5934 5934 5935 5935 5935 5935 5934 5933 5932 5932 5931 5930 5928 5925 5922 5920 5918 5916 5914 5912 5910 5908 5906 5904 5902 5901 5899 5898 5898 5897 5896 5896 5896 5897 5897 5897
5919 5921 5923 5924 5926 5928 5930 5930 5931 5932 5933 5934 5933 5933 5933 5931 5931 5930 5929 5928 5926 5924 5921 5919 5917 5915 5913 5912 5910 5907 5905 5903 5902 5900 5899 5898 5897 5897 5896 5895 5895 5896 5896 5896
5915 5917 5919 5921 5923 5925 5927 5928 5929 5929 5930 5931 5931 5931 5930 5929 5929 5928 5927 5926 5924 5922 5920 5918 5915 5914 5912 5910 5908 5906 5904 5902 5901 5900 5898 5897 5896 5895 5894 5894 5894 5894 5894 5894
5911 5913 5916 5918 5920 5922 5923 5925 5927 5927 5928 5929 5928 5928 5928 5927 5927 5926 5925 5924 5922 5921 5918 5916 5914 5912 5910 5909 5907 5905 5903 5901 5900 5899 5898 5896 5895 5893 5893 5893 5893 5893 5892 5892
5905 5909 5912 5914 5916 5918 5920 5922 5924 5925 5925 5925 5925 5925 5926 5925 5924 5924 5923 5922 5920 5919 5917 5914 5912 5910 5908 5906 5905 5903 5901 5900 5898 5897 5896 5895 5894 5893 5892 5892 5891 5891 5891 5891
5900 5905 5908 5909 5912 5914 5916 5918 5920 5920 5921 5921 5922 5922 5922 5922 5921 5921 5921 5919 5918 5916 5914 5911 5909 5907 5905 5904 5903 5901 5899 5898 5896 5895 5894 5893 5892 5891 5891 5890 5890 5890 5889 5889
5894 5899 5903 5905 5907 5909 5912 5914 5915 5916 5917 5918 5918 5919 5919 5918 5918 5918 5917 5916 5914 5913 5911 5908 5906 5903 5903 5902 5900 5899 5897 5895 5894 5893 5892 5891 5891 5890 5889 5889 5888 5888 5887 5887
5888 5892 5897 5899 5901 5905 5907 5909 5911 5912 5913 5914 5915 5917 5916 5915 5915 5915 5914 5914 5912 5911 5909 5907 5904 5901 5901 5900 5899 5897 5895 5894 5893 5892 5891 5890 5889 5888 5888 5887 5886 5886 5885 5885
5882 5886 5890 5893 5896 5899 5902 5904 5906 5908 5910 5910 5911 5915 5912 5912 5912 5912 5912 5911 5910 5908 5907 5905 5903 5901 5901 5899 5897 5896 5894 5892 5891 5890 5889 5888 5887 5886 5885 5885 5884 5883 5883 5882
5875 5879 5884 5888 5893 5895 5897 5899 5902 5903 5905 5906 5907 5910 5908 5908 5908 5909 5909 5909 5907 5906 5905 5903 5901 5900 5899 5897 5896 5894 5892 5891 5890 5888 5887 5887 5886 5884 5883 5882 5881 5881 5880 5879
5869 5873 5878 5883 5887 5889 5891 5894 5896 5898 5899 5901 5902 5904 5904 5904 5905 5905 5905 5905 5905 5904 5903 5901 5899 5898 5896 5895 5894 5892 5890 5889 5888 5886 5886 5885 5883 5882 5881 5880 5879 5878 5877 5876
5863 5867 5871 5877 5881 5883 5885 5888 5891 5892 5894 5896 5897 5898 5899 5899 5900 5901 5901 5901 5901 5901 5900 5899 5897 5896 5894 5892 5891 5890 5889 5887 5886 5884 5883 5882 5880 5879 5878 5877 5876 5875 5874 5873
5856 5861 5865 5870 5875 5877 5880 5883 5885 5887 5888 5890 5891 5893 5894 5895 5895 5896 5897 5897 5897 5897 5896 5895 5894 5892 5891 5889 5888 5887 5886 5885 5883 5882 5880 5877 5877 5876 5875 5874 5872 5871 5870 5869
5850 5855 5859 5863 5868 5871 5874 5878 5880 5881 5883 5884 5886 5889 5890 5890 5891 5892 5892 5893 5894 5893 5892 5891 5890 5889 5888 5887 5886 5884 5883 5882 5880 5879 5877 5874 5873 5873 5872 5870 5869 5868 5867 5865
5844 5848 5853 5857 5862 5864 5871 5872 5874 5875 5877 5879 5880 5882 5884 5886 5886 5887 5887 5888 5889 5888 5887 5887 5886 5885 5884 5883 5882 5881 5880 5878 5877 5875 5874 5873 5871 5870 5869 5867 5866 5864 5863 5861
5837 5841 5845 5850 5853 5858 5862 5865 5867 5869 5871 5873 5875 5877 5878 5879 5881 5882 5882 5883 5884 5884 5883 5882 5882 5881 5880 5879 5878 5877 5876 5875 5873 5872 5870 5869 5868 5867 5865 5864 5862 5861 5859 5857
5828 5833 5838 5842 5846 5849 5855 5858 5860 5863 5864 5867 5869 5871 5873 5874 5876 5877 5877 5878 5879 5879 5879 5878 5878 5877 5876 5875 5874 5873 5871 5870 5869 5868 5866 5865 5864 5863 5861 5860 5858 5856 5855 5853
5820 5824 5829 5834 5837 5841 5847 5850 5854 5857 5858 5861 5863 5865 5867 5868 5870 5871 5872 5873 5874 5874 5874 5874 5873 5872 5871 5870 5869 5868 5867 5865 5864 5863 5862 5861 5860 5858 5857 5855 5854 5852 5850 5849
5812 5816 5821 5825 5829 5836 5839 5843 5846 5848 5852 5855 5857 5859 5860 5862 5863 5864 5866 5867 5868 5868 5868 5868 5868 5867 5866 5865 5864 5863 5862 5861 5859 5858 5857 5856 5855 5853 5852 5850 5849 5847 5845 5844
5803 5808 5813 5817 5822 5827 5831 5835 5838 5841 5844 5848 5850 5852 5853 5855 5856 5857 5859 5860 5861 5861 5861 5861 5861 5860 5860 5859 5859 5857 5856 5854 5854 5853 5851 5850 5849 5848 5846 5845 5843 5841 5840 5838
5795 5800 5804 5808 5812 5817 5822 5826 5830 5833 5837 5840 5843 5845 5846 5847 5849 5850 5852 5853 5853 5854 5854 5854 5854 5854 5853 5853 5852 5851 5849 5848 5847 5846 5845 5844 5843 5841 5840 5838 5837 5835 5833 5831
5788 5792 5796 5800 5805 5809 5813 5818 5822 5826 5829 5832 5834 5836 5837 5839 5841 5843 5844 5845 5846 5846 5846 5846 5847 5846 5846 5845 5844 5844 5843 5842 5841 5839 5838 5837 5836 5835 5833 5832 5830 5828 5826 5824
5780 5785 5789 5792 5797 5801 5805 5809 5813 5817 5820 5823 5825 5827 5829 5830 5832 5834 5835 5836 5837 5838 5837 5836 5837 5837 5837 5837 5836 5836 5835 5834 5833 5832 5831 5830 5829 5828 5826 5824 5822 5820 5818 5816